This demonstration page uses our WeatherBlox Daily Observations layout. Learn more.

Left ArrowRight Arrow

47.50024, -111.30081

Hourly Observations for March 21, 2015

Temp ( °F °C ) Dew Point ( °F °C ) Humidity (%) Winds ( mph kmh ) Pressure ( in mb ) Visibility ( mi km ) Precip ( " mm )
12:53 am 00:53 Clear 48 8.9 29 -1.7 48 48 SW 12 19 29.92 1013 10 16 0.00 0.00
1:53 am 01:53 Clear 40 4.4 29 -1.7 65 65 WSW 9 15 29.94 1014 10 16 0.00 0.00
2:53 am 02:53 Clear 41 5 29 -1.7 62 62 WSW 8 13 29.93 1014 10 16 0.00 0.00
3:53 am 03:53 Clear 38 3.3 27 -2.8 65 65 WSW 5 7 29.93 1014 10 16 0.00 0.00
4:53 am 04:53 Clear 43 6.1 29 -1.7 58 58 SSW 8 13 29.91 1013 10 16 0.00 0.00
5:53 am 05:53 Clear 39 3.9 27 -2.8 62 62 SSW 8 13 29.90 1013 10 16 0.00 0.00
6:53 am 06:53 Clear 44 6.7 28 -2.2 53 53 SSW 9 15 29.90 1013 10 16 0.00 0.00
7:53 am 07:53 Sunny 44 6.7 28 -2.2 53 53 SSW 12 19 29.92 1013 10 16 0.00 0.00
8:53 am 08:53 Partly Cloudy 49 9.4 29 -1.7 46 46 S 9 15 29.91 1013 10 16 0.00 0.00
9:53 am 09:53 Cloudy 53 11.7 28 -2.2 38 38 S 10 17 29.89 1012 10 16 0.00 0.00
10:53 am 10:53 Mostly Sunny 59 15 28 -2.2 31 31 SSW 7 11 29.85 1011 10 16 0.00 0.00
11:53 am 11:53 Sunny 62 16.7 27 -2.8 26 26 SW 15 24 29.83 1010 10 16 0.00 0.00
12:53 pm 12:53 Sunny 63 17.2 27 -2.8 26 26 SW 24 39 29.82 1010 10 16 0.00 0.00
1:53 pm 13:53 Mostly Cloudy 63 17.2 27 -2.8 26 26 SW 21 33 29.85 1011 10 16 0.00 0.00
2:53 pm 14:53 Sunny 60 15.6 30 -1.1 32 32 WSW 33 54 29.88 1012 10 16 0.00 0.00
3:53 pm 15:53 Sunny 59 15 28 -2.2 31 31 W 16 26 29.90 1012 10 16 0.00 0.00
4:53 pm 16:53 Sunny 58 14.4 28 -2.2 32 32 SW 24 39 29.89 1012 10 16 0.00 0.00
5:53 pm 17:53 Sunny 59 15 23 -5 25 25 W 24 39 29.91 1013 10 16 0.00 0.00
6:53 pm 18:53 Sunny 56 13.3 21 -6.1 26 26 WSW 21 33 29.92 1013 10 16 0.00 0.00
7:53 pm 19:53 Clear 50 10 24 -4.4 36 36 WSW 16 26 29.95 1014 10 16 0.00 0.00
8:53 pm 20:53 Clear 49 9.4 26 -3.3 41 41 WSW 21 33 29.95 1014 10 16 0.00 0.00
9:53 pm 21:53 Clear 43 6.1 23 -5 45 45 WSW 12 19 29.98 1015 10 16 0.00 0.00
10:53 pm 22:53 Clear 41 5 21 -6.1 45 45 W 7 11 29.97 1015 10 16 0.00 0.00
11:53 pm 23:53 Clear 39 3.9 22 -5.6 50 50 WSW 12 19 29.97 1015 10 16 0.00 0.00

Powered by AerisWeather